Weather at Buchanan Field

Public forecast

Using degrees Fahrenheit for public forecast. Weather courtesy of forecast.io.

Current aviation weather report (METAR) for Buchanan Field

Retrieved 2020/11/28 11:53 UTC (49 minutes ago):

KCCR 281153Z AUTO 15003KT 10SM CLR 02/M02 A3027 RMK AO2 SLP235 T00221022 10067 20022 52004

Aviation forecast (TAF) for Buchanan Field

Forecast is more than 12 hours old.

Retrieved 2016/02/08 00:21 UTC (5 years ago):

TAF KCCR 082320Z 0900/0924 06006KT P6SM SKC FM090600 VRB03KT P6SM SKC FM091800 04009KT P6SM SKC